TimeCDT,TemperatureF,Dew PointF,Humidity,Sea Level PressureIn,VisibilityMPH,Wind Direction,Wind SpeedMPH,Gust SpeedMPH,PrecipitationIn,Events,Conditions,WindDirDegrees,DateUTC
12:53 AM,82.0,72.0,71,29.84,9.0,Calm,Calm,-,N/A,,Clear,0,2013-06-28 05:53:00
1:53 AM,80.1,73.0,79,29.81,9.0,Calm,Calm,-,N/A,,Clear,0,2013-06-28 06:53:00
2:53 AM,81.0,73.0,77,29.79,8.0,Calm,Calm,-,N/A,,Clear,0,2013-06-28 07:53:00
3:53 AM,82.0,66.9,60,29.83,9.0,North,11.5,20.7,N/A,,Mostly Cloudy,350,2013-06-28 08:53:00
4:09 AM,80.6,66.2,61,29.87,10.0,NNW,6.9,-,N/A,Thunderstorm,Thunderstorm,340,2013-06-28 09:09:00
4:53 AM,72.0,68.0,87,29.82,10.0,ENE,8.1,-,0.11,Thunderstorm,Partly Cloudy,70,2013-06-28 09:53:00
5:00 AM,71.6,66.2,83,29.87,10.0,ENE,9.2,-,N/A,,Clear,70,2013-06-28 10:00:00
5:53 AM,70.0,66.9,90,29.83,10.0,Calm,Calm,-,0.01,,Partly Cloudy,0,2013-06-28 10:53:00
6:53 AM,71.1,68.0,90,29.82,8.0,Calm,Calm,-,N/A,,Scattered Clouds,0,2013-06-28 11:53:00
7:53 AM,73.0,69.1,87,29.84,8.0,Calm,Calm,-,N/A,,Clear,0,2013-06-28 12:53:00
8:53 AM,75.0,69.1,82,29.87,9.0,Variable,3.5,-,N/A,,Mostly Cloudy,0,2013-06-28 13:53:00
9:53 AM,80.1,68.0,67,29.87,10.0,Calm,Calm,-,N/A,,Clear,0,2013-06-28 14:53:00
10:53 AM,84.0,66.0,55,29.88,10.0,Variable,5.8,-,N/A,,Clear,0,2013-06-28 15:53:00
11:53 AM,86.0,64.9,49,29.87,10.0,NNW,8.1,-,N/A,,Clear,330,2013-06-28 16:53:00
12:53 PM,88.0,61.0,40,29.86,10.0,Variable,5.8,-,N/A,,Clear,0,2013-06-28 17:53:00
1:53 PM,90.0,61.0,38,29.84,10.0,Variable,4.6,-,N/A,,Partly Cloudy,0,2013-06-28 18:53:00
2:53 PM,91.0,57.9,33,29.81,10.0,NNW,8.1,-,N/A,,Scattered Clouds,330,2013-06-28 19:53:00
3:53 PM,91.0,59.0,34,29.79,10.0,Variable,5.8,16.1,N/A,,Scattered Clouds,0,2013-06-28 20:53:00
4:53 PM,90.0,60.1,37,29.79,10.0,Variable,4.6,17.3,N/A,,Clear,0,2013-06-28 21:53:00
5:53 PM,89.1,60.1,38,29.78,10.0,Variable,5.8,-,N/A,,Clear,0,2013-06-28 22:53:00
6:53 PM,86.0,60.1,41,29.76,10.0,Variable,3.5,-,N/A,,Mostly Cloudy,0,2013-06-28 23:53:00
7:53 PM,84.0,63.0,49,29.77,10.0,NNW,6.9,-,N/A,,Clear,330,2013-06-29 00:53:00
8:53 PM,80.1,61.0,52,29.78,10.0,Calm,Calm,-,N/A,,Clear,0,2013-06-29 01:53:00
9:53 PM,79.0,55.9,45,29.79,10.0,NNW,3.5,-,N/A,,Clear,340,2013-06-29 02:53:00
10:53 PM,75.0,57.0,53,29.80,10.0,Variable,3.5,-,N/A,,Clear,0,2013-06-29 03:53:00
11:53 PM,70.0,57.0,63,29.81,10.0,Calm,Calm,-,N/A,,Clear,0,2013-06-29 04:53:00